Weather History for Austin, TX

Change the Weather History Date:

Monday, November 26, 2012

  Actual Average Record
Temperature  
Mean Temperature 73 °F 57 °F  
Max Temperature 85 °F 68 °F 86 °F (1988)
Min Temperature 60 °F 47 °F 24 °F (1924)
Degree Days  
Heating Degree Days 0 9  
Month to date heating degree days 83 143  
Since 1 July heating degree days 143 174  
Cooling Degree Days 8 1  
Month to date cooling degree days 93 57  
Year to date cooling degree days 3557 3122  
Growing Degree Days 24 (Base 50)    
Moisture  
Dew Point 58 °F    
Average Humidity 66    
Maximum Humidity 93    
Minimum Humidity 39    
Precipitation  
Precipitation 0.00 in 0.09 in 1.33 in (1968)
Month to date precipitation 0.00 2.60  
Year to date precipitation 32.67 31.56  
Snow  
Snow 0.00 in - - ()
Month to date snowfall 0.0  
Since 1 July snowfall 0.0  
Since 1 September snowfall 0.0  
Snow Depth 0.00 in    
Sea Level Pressure  
Sea Level Pressure 29.98 in    
Wind  
Wind Speed 6 mph (SW)    
Max Wind Speed 12 mph    
Max Gust Speed 19 mph    
Visibility 10 miles    
Events Thunderstorm    
T = Trace of Precipitation, MM = Missing Value Source: NWS Daily Summary

Daily Weather History Graph

Daily Weather History Graph

Search for Another Location

Airport:

Trip Planner

Search our weather history database for the weather conditions in past years. The results will help you decide how hot, cold, wet, or windy it might be!

Date:

Astronomy

Nov. 26, 2012 Rise Set
Actual Time 7:06 AM CST 5:30 PM CST
Civil Twilight 6:40 AM CST 5:56 PM CST
Nautical Twilight 6:10 AM CST 6:25 PM CST
Astronomical Twilight 5:42 AM CST 6:54 PM CST
Moon 4:20 PM CST 5:22 AM CST
Length of Visible Light 11h 16m
Length of Day
10h 24m
Waxing Gibbous, 97% of the Moon is Illuminated
Nov 26
Waxing Gibbous
Nov 28
Full
Dec 6
Last Quarter
Dec 13
New
Dec 19
First Quarter

Hourly Weather History & Observations

Time (CST) Temp. Heat Index Dew Point Humidity Pressure Visibility Wind Dir Wind Speed Gust Speed Precip Events Conditions
12:51 AM 64.9 °F - 59.0 °F 81% 29.93 in 10.0 mi South 5.8 mph - N/A   Overcast
1:29 AM 64.9 °F - 60.1 °F 84% 29.94 in 10.0 mi Variable 3.5 mph - N/A   Overcast
1:44 AM 64.9 °F - 60.1 °F 84% 29.94 in 10.0 mi South 4.6 mph - N/A   Overcast
1:51 AM 64.9 °F - 60.1 °F 84% 29.91 in 10.0 mi Calm Calm - N/A   Overcast
2:51 AM 64.9 °F - 62.1 °F 90% 29.91 in 10.0 mi Variable 5.8 mph - N/A   Overcast
3:02 AM 66.0 °F - 62.1 °F 87% 29.93 in 10.0 mi SSW 4.6 mph - N/A   Overcast
3:51 AM 64.9 °F - 62.1 °F 90% 29.91 in 10.0 mi SSW 3.5 mph - N/A   Mostly Cloudy
4:39 AM 66.0 °F - 62.1 °F 87% 29.94 in 10.0 mi Variable 4.6 mph - N/A   Overcast
4:51 AM 66.0 °F - 62.1 °F 87% 29.91 in 10.0 mi SSW 4.6 mph - N/A   Overcast
5:12 AM 66.0 °F - 62.1 °F 87% 29.94 in 10.0 mi SSW 4.6 mph - N/A   Overcast
5:25 AM 66.0 °F - 62.1 °F 87% 29.94 in 10.0 mi SSW 4.6 mph - N/A   Overcast
5:51 AM 66.0 °F - 61.0 °F 84% 29.93 in 10.0 mi Variable 6.9 mph - N/A   Overcast
6:49 AM 64.4 °F - 60.8 °F 88% 29.96 in 10.0 mi SW 3.5 mph - N/A   Scattered Clouds
6:51 AM 64.9 °F - 61.0 °F 87% 29.94 in 10.0 mi SW 3.5 mph - N/A   Scattered Clouds
7:37 AM 64.0 °F - 62.1 °F 93% 29.98 in 4.0 mi SSW 3.5 mph - N/A   Mostly Cloudy
7:51 AM 64.0 °F - 62.1 °F 93% 29.97 in 5.0 mi Calm Calm - N/A   Overcast
8:51 AM 66.9 °F - 62.1 °F 84% 29.98 in 10.0 mi Variable 4.6 mph - N/A   Overcast
9:21 AM 69.1 °F - 62.1 °F 78% 30.00 in 10.0 mi SW 5.8 mph - N/A   Scattered Clouds
9:51 AM 71.1 °F - 62.1 °F 73% 29.99 in 10.0 mi Variable 6.9 mph - N/A   Partly Cloudy
10:51 AM 75.0 °F - 62.1 °F 64% 29.97 in 10.0 mi Variable 6.9 mph - N/A   Clear
11:51 AM 80.1 °F 80.9 °F 60.1 °F 50% 29.95 in 10.0 mi Variable 5.8 mph - N/A   Clear
12:51 PM 82.9 °F 83.2 °F 60.1 °F 46% 29.92 in 10.0 mi SSW 8.1 mph - N/A   Clear
1:51 PM 84.0 °F 83.8 °F 59.0 °F 43% 29.90 in 10.0 mi Variable 6.9 mph - N/A   Clear
2:51 PM 82.0 °F 82.1 °F 59.0 °F 45% 29.90 in 10.0 mi SSW 9.2 mph - N/A   Clear
3:51 PM 80.1 °F 80.6 °F 57.9 °F 47% 29.91 in 10.0 mi South 4.6 mph - N/A   Clear
4:51 PM 79.0 °F - 57.9 °F 48% 29.92 in 10.0 mi Variable 3.5 mph - N/A   Clear
5:51 PM 77.0 °F - 59.0 °F 54% 29.95 in 10.0 mi SW 4.6 mph - N/A   Clear
5:59 PM 75.9 °F - 59.0 °F 56% 29.98 in 10.0 mi Variable 3.5 mph - N/A Thunderstorm Thunderstorm
6:38 PM 75.0 °F - 60.1 °F 60% 30.00 in 10.0 mi Calm Calm - N/A   Clear
6:51 PM 75.0 °F - 55.9 °F 51% 30.01 in 10.0 mi NW 6.9 mph - N/A Thunderstorm Thunderstorm
7:09 PM 73.0 °F - 52.0 °F 48% 30.04 in 10.0 mi Variable 5.8 mph - N/A   Partly Cloudy
7:51 PM 70.0 °F - 54.0 °F 57% 30.06 in 10.0 mi NNW 5.8 mph - N/A   Clear
8:51 PM 68.0 °F - 42.1 °F 39% 30.09 in 10.0 mi North 8.1 mph - N/A   Clear
9:51 PM 64.9 °F - 41.0 °F 42% 30.15 in 10.0 mi North 9.2 mph - N/A   Scattered Clouds
10:51 PM 63.0 °F - 41.0 °F 45% 30.20 in 10.0 mi NNW 9.2 mph - N/A   Clear
11:51 PM 60.1 °F - 42.1 °F 51% 30.21 in 10.0 mi NNW 10.4 mph - N/A   Clear